[[{"header":{"parameterUnit":"m.s-1","parameterCategory":1,"la1":30.2991,"la2":30.254,"lo1":-89.0895,"lo2":-89.0444,"dy":0.0017,"dx":0.0017,"nx":28,"ny":28,"refTime":"2024-11-24T09:00:00:Z","depth":0,"parameterNumber":2,"parameterNumberName":"U-component_of_WINDS"},"data":[0,0,0,0,0,0,0,0,0,0,0,0,0,0,0,0,0,0,0,0,0,0,0,0,0,0,0,0,0,0,0,0,0,0,0,0,0,0,0,0,0,0,0,0,0,0,0,0,0,0,0,0,0,0,0,0,0,0,-1.2318,-1.2318,0,-1.2368,-1.2368,-1.2369,-1.2483,-1.2485,-1.2487,-1.2489,-1.2536,-1.2536,-1.2535,0,0,0,0,0,0,0,0,0,0,0,0,0,-1.2317,-1.2316,-1.2318,-1.2318,-1.2319,-1.2367,-1.2368,-1.2369,-1.2482,-1.2485,-1.2488,-1.2491,-1.2537,-1.2536,-1.2535,0,0,0,0,0,0,0,0,0,0,0,0,0,-1.2337,-1.2316,-1.2318,-1.2381,-1.2388,-1.2367,-1.2368,-1.2369,-1.2482,-1.2485,-1.2489,-1.2492,-1.2537,-1.2536,-1.2534,-1.2455,0,0,-1.253,-1.2529,0,0,0,0,0,0,0,0,-1.2336,-1.2337,-1.2371,-1.2377,-1.2384,-1.2423,-1.2385,-1.2398,-1.2481,-1.2446,-1.249,-1.2494,-1.2495,-1.2498,-1.2499,-1.2457,-1.2459,-1.253,-1.2529,-1.2528,-1.2528,0,0,0,0,0,0,0,-1.2334,-1.2335,-1.2337,-1.2372,-1.2379,-1.2406,-1.2413,-1.2388,-1.245,-1.2449,-1.2457,-1.2462,-1.2499,-1.25,-1.2501,-1.246,-1.253,-1.2529,-1.2528,-1.2527,-1.2353,-1.2349,0,0,0,0,0,0,-1.2324,-1.2333,-1.2336,-1.2339,-1.2368,-1.2403,-1.2411,-1.2406,-1.2451,-1.2461,-1.2459,-1.2467,-1.2501,-1.2503,-1.2503,-1.2411,-1.2528,-1.2527,-1.2526,-1.2356,-1.2352,-1.2348,0,0,0,0,0,0,-1.2323,-1.2323,-1.2334,-1.2338,-1.2342,-1.24,-1.2394,-1.2406,-1.2406,-1.2458,-1.2469,-1.2448,-1.2504,-1.2505,-1.2466,-1.2414,-1.2526,-1.2525,-1.2361,-1.2355,-1.235,-1.2227,0,0,0,0,0,0,-1.2323,-1.2322,-1.2293,-1.2337,-1.2341,-1.2296,-1.2391,-1.2404,-1.2404,-1.2415,-1.2451,-1.2461,-1.2507,-1.2467,-1.2464,-1.2414,-1.2524,-1.2366,-1.2358,-1.2352,-1.2236,-1.2218,-1.2202,0,0,0,0,0,-1.2323,-1.2256,-1.2291,-1.2291,-1.2307,-1.2293,-1.2295,-1.2351,-1.24,-1.237,-1.2403,-1.2459,-1.2421,-1.2462,-1.246,-1.2409,-1.2369,-1.236,-1.2352,-1.2243,-1.2221,-1.2203,0,0,0,0,0,0,-1.2204,-1.2263,-1.2303,-1.2249,-1.2265,-1.2312,-1.2277,-1.2326,-1.2328,-1.2338,-1.2406,-1.2413,-1.2364,-1.2383,-1.2428,-1.2333,-1.2404,-1.2395,-1.2322,-1.2302,-1.2285,-1.228,-1.2523,0,0,0,0,0,-1.2172,-1.2157,-1.221,-1.2157,-1.2163,-1.2218,-1.2215,-1.2256,-1.2275,-1.2282,-1.2313,-1.2328,-1.2319,-1.2312,-1.2307,-1.224,-1.2248,-1.2204,-1.2187,-1.2173,-1.2163,-1.2127,-1.2107,-1.232,-1.232,-1.232,0,0,-1.2105,-1.2136,-1.2122,-1.2134,-1.2152,-1.2133,-1.2223,-1.2201,-1.2187,-1.2279,-1.2243,-1.2266,-1.2287,-1.2233,-1.2211,-1.2247,-1.2106,-1.2162,-1.215,-1.2148,-1.2116,-1.2096,-1.2078,-1.2314,-1.2315,-1.2316,0,0,-1.1973,-1.1996,-1.1954,-1.1969,-1.1995,-1.2032,-1.2022,-1.2062,-1.208,-1.2046,-1.2114,-1.2099,-1.2083,-1.2095,-1.2098,-1.1971,-1.2021,-1.1967,-1.1879,-1.1842,-1.1826,-1.1811,-1.1763,-1.1745,-1.1958,-1.1957,-1.1957,0,-1.1886,-1.1862,-1.1925,-1.1898,-1.19,-1.1984,-1.194,-1.1952,-1.1974,-1.1973,-1.2015,-1.1996,-1.2016,-1.1965,-1.1933,-1.1935,-1.1923,-1.1962,-1.1823,-1.1809,-1.1797,-1.1751,-1.1733,-1.1951,-1.1951,-1.1952,-1.1953,0,-1.1753,-1.1735,-1.1698,-1.1718,-1.1716,-1.1681,-1.1737,-1.1728,-1.1769,-1.1801,-1.1764,-1.1792,-1.1793,-1.1785,-1.1825,-1.1738,-1.176,-1.1811,-1.1884,-1.1768,-1.1727,-1.171,-1.1941,-1.1943,-1.1945,-1.1947,0,0,-1.1546,-1.1602,-1.1587,-1.1596,-1.163,-1.1617,-1.1585,-1.1588,-1.1577,-1.159,-1.1563,-1.1547,-1.1595,-1.1599,-1.1642,-1.161,-1.1504,-1.1665,-1.1667,-1.1632,-1.1407,-1.1367,-1.1346,-1.1539,-1.1536,-1.1534,-1.1405,0,-1.1421,-1.137,-1.1425,-1.1362,-1.1345,-1.1424,-1.1396,-1.1413,-1.1442,-1.1431,-1.1463,-1.145,-1.1515,-1.1518,-1.1491,-1.1522,-1.1459,-1.1533,-1.1512,-1.151,-1.1502,-1.1325,-1.1282,-1.1159,-1.1389,-1.1387,-1.1385,0,-1.1267,-1.1273,-1.1208,-1.1245,-1.124,-1.1214,-1.122,-1.1209,-1.1229,-1.1253,-1.1257,-1.1309,-1.1278,-1.135,-1.1307,-1.1356,-1.1351,-1.1365,-1.1362,-1.136,-1.1439,-1.1315,-1.1122,-1.1102,-1.136,-1.1362,-1.1364,0,-1.112,-1.1111,-1.1071,-1.1077,-1.112,-1.1099,-1.1116,-1.1141,-1.1138,-1.1143,-1.1141,-1.1142,-1.1142,-1.114,-1.119,-1.1238,-1.114,-1.1217,-1.1156,-1.1155,-1.113,-1.113,-1.093,-1.1131,-1.1131,-1.1131,-1.1132,0,-1.0972,-1.0929,-1.1005,-1.098,-1.0933,-1.0997,-1.0949,-1.0973,-1.0994,-1.0974,-1.1043,-1.1022,-1.109,-1.1076,-1.1114,-1.1071,-1.1071,-1.1088,-1.1098,-1.108,-1.1078,-1.1076,-1.1085,-1.1126,-1.1127,-1.1128,-1.1129,0,-1.0799,-1.0849,-1.081,-1.0854,-1.0864,-1.0827,-1.0865,-1.0842,-1.0877,-1.085,-1.0847,-1.09,-1.0887,-1.0937,-1.0932,-1.0958,-1.0894,-1.092,-1.0887,-1.0894,-1.083,-1.0834,-1.0619,-1.0593,-1.0812,-1.081,-1.0808,0,-1.0701,-1.0669,-1.071,-1.0702,-1.0715,-1.0701,-1.0699,-1.0761,-1.0755,-1.0775,-1.075,-1.0743,-1.074,-1.0715,-1.0752,-1.0748,-1.0773,-1.0698,-1.0772,-1.0755,-1.0769,-1.0769,-1.0765,-1.0681,-1.0679,-1.0676,-1.0675,0,-1.052,-1.0546,-1.0541,-1.0543,-1.0539,-1.0544,-1.0553,-1.0542,-1.0608,-1.0598,-1.0586,-1.0584,-1.0579,-1.057,-1.0574,-1.059,-1.0642,-1.0651,-1.0637,-1.0617,-1.0598,-1.0605,-1.0842,-1.0655,-1.0657,-1.0659,-1.066,-1.066,-1.038,-1.0355,-1.0379,-1.037,-1.0384,-1.0391,-1.0372,-1.0404,-1.0395,-1.0396,-1.0433,-1.0413,-1.0433,-1.0444,-1.0454,-1.0438,-1.0473,-1.0452,-1.0447,-1.044,-1.0428,-1.0602,-1.0439,-1.044,-1.0441,-1.0441,-1.0442,0,-1.0201,-1.022,-1.0212,-1.0223,-1.0215,-1.0267,-1.028,-1.0269,-1.0251,-1.0266,-1.0262,-1.0247,-1.0239,-1.0275,-1.0271,-1.0251,-1.0275,-1.0248,-1.0249,-1.0251,-1.0398,-1.041,-1.0229,-1.0229,-1.0229,-1.0229,-1.0229,-1.0229,-1.0106,-1.0066,-1.0095,-1.0061,-1.0081,-1.0063,-1.0065,-1.0071,-1.0083,-1.0064,-1.0057,-1.0082,-1.0104,-1.0102,-1.0096,-1.0107,-1.0101,-1.0065,-1.0084,-1.022,-1.0241,-1.0261,-1.0272,-1.0064,-1.0064,-0.9938,-0.9936,-0.9935]},{"header":{"parameterUnit":"m.s-1","parameterCategory":1,"la1":30.2991,"la2":30.254,"lo1":-89.0895,"lo2":-89.0444,"dy":0.0017,"dx":0.0017,"nx":28,"ny":28,"refTime":"2024-11-24T09:00:00:Z","depth":0,"parameterNumber":3,"parameterNumberName":"V-component_of_WINDS"},"data":[0,0,0,0,0,0,0,0,0,0,0,0,0,0,0,0,0,0,0,0,0,0,0,0,0,0,0,0,0,0,0,0,0,0,0,0,0,0,0,0,0,0,0,0,0,0,0,0,0,0,0,0,0,0,0,0,0,0,3.3234,3.3235,0,3.3329,3.333,3.3331,3.3283,3.3281,3.3278,3.3276,3.337,3.3374,3.3379,0,0,0,0,0,0,0,0,0,0,0,0,0,3.3006,3.3011,3.3234,3.3235,3.3236,3.3329,3.333,3.3332,3.3284,3.3281,3.3278,3.3275,3.3368,3.3374,3.3379,0,0,0,0,0,0,0,0,0,0,0,0,0,3.3104,3.3012,3.3233,3.3223,3.3224,3.3329,3.333,3.3332,3.3284,3.3281,3.3277,3.3273,3.3366,3.3373,3.338,3.3499,0,0,3.3402,3.3405,0,0,0,0,0,0,0,0,3.3098,3.3112,3.3224,3.3224,3.3225,3.3291,3.3284,3.3388,3.3285,3.3261,3.3276,3.3271,3.3346,3.3355,3.3381,3.3504,3.3508,3.3403,3.3407,3.341,3.3412,0,0,0,0,0,0,0,3.3092,3.3108,3.3271,3.3225,3.3226,3.3213,3.3223,3.3304,3.3323,3.3263,3.326,3.3272,3.3345,3.3374,3.3382,3.3509,3.3403,3.3409,3.3414,3.3416,3.3736,3.374,0,0,0,0,0,0,3.3086,3.3102,3.3268,3.3274,3.3151,3.322,3.3231,3.3273,3.3322,3.3326,3.3275,3.3269,3.3363,3.3374,3.3386,3.353,3.341,3.3417,3.3421,3.3732,3.3737,3.3742,0,0,0,0,0,0,3.3081,3.3101,3.3264,3.3188,3.3207,3.3228,3.3276,3.3277,3.3305,3.3331,3.3334,3.3301,3.3361,3.3375,3.3472,3.3532,3.342,3.3427,3.3727,3.3734,3.3739,3.3819,0,0,0,0,0,0,3.3075,3.31,3.3146,3.3189,3.3212,3.3351,3.3279,3.3281,3.3318,3.3312,3.3356,3.336,3.3359,3.3462,3.3479,3.354,3.3433,3.3722,3.373,3.3737,3.3811,3.3827,3.3841,0,0,0,0,0,3.3067,3.3164,3.3149,3.3169,3.327,3.3354,3.3367,3.3365,3.3323,3.337,3.3387,3.3358,3.3523,3.3472,3.3491,3.3556,3.3718,3.3728,3.3737,3.3804,3.3824,3.384,0,0,0,0,0,0,3.3126,3.3169,3.3153,3.3267,3.3308,3.3346,3.3405,3.3386,3.3438,3.343,3.3424,3.3434,3.3535,3.3554,3.3497,3.3674,3.3614,3.3627,3.3658,3.3677,3.3692,3.3686,3.3439,0,0,0,0,0,3.3152,3.3218,3.3252,3.3349,3.337,3.3384,3.342,3.3416,3.3457,3.3474,3.3497,3.3538,3.3598,3.3638,3.3695,3.3813,3.3822,3.3866,3.3881,3.3893,3.3906,3.3971,3.3991,3.3772,3.3772,3.3772,0,0,3.3207,3.3239,3.3281,3.3361,3.3392,3.346,3.3399,3.3472,3.3523,3.3484,3.3578,3.3597,3.3641,3.3749,3.3798,3.3768,3.3968,3.3905,3.3915,3.3921,3.3982,3.4003,3.4022,3.3779,3.3778,3.3777,0,0,3.3342,3.3373,3.3458,3.349,3.3539,3.3547,3.3568,3.361,3.3621,3.3716,3.3689,3.3747,3.3851,3.3885,3.3915,3.4063,3.404,3.4082,3.416,3.4224,3.4241,3.4256,3.4311,3.433,3.4093,3.4094,3.4094,0,3.3404,3.3507,3.3503,3.358,3.3617,3.3586,3.3672,3.3703,3.3767,3.3793,3.3759,3.389,3.3917,3.4034,3.407,3.4095,3.4118,3.4078,3.4239,3.4254,3.4268,3.432,3.4341,3.4099,3.4098,3.4098,3.4097,0,3.3581,3.3653,3.3715,3.378,3.3823,3.3904,3.3912,3.3956,3.3947,3.3959,3.4055,3.4087,3.4151,3.4178,3.4169,3.4293,3.4274,3.4239,3.4179,3.4294,3.4343,3.4363,3.4106,3.4104,3.4103,3.4101,0,0,3.3758,3.382,3.3843,3.3873,3.3924,3.3979,3.4057,3.4121,3.416,3.4204,3.4271,3.436,3.4329,3.4364,3.4358,3.4414,3.4531,3.4373,3.4374,3.4403,3.4672,3.4699,3.4722,3.4515,3.4519,3.4522,3.4669,0,3.3898,3.4039,3.4038,3.4168,3.4234,3.4206,3.4275,3.4313,3.4326,3.4383,3.4397,3.4461,3.4415,3.4436,3.4489,3.4506,3.4585,3.4495,3.4577,3.458,3.457,3.4747,3.4776,3.4913,3.4687,3.4691,3.4693,0,3.4081,3.4135,3.4272,3.4314,3.4342,3.4404,3.4463,3.4518,3.4561,3.4566,3.4606,3.4592,3.4671,3.4607,3.4717,3.4656,3.4689,3.4702,3.4707,3.4716,3.4645,3.4763,3.4957,3.4978,3.4722,3.472,3.4718,0,3.4199,3.4304,3.44,3.4426,3.4478,3.4522,3.4545,3.4584,3.4623,3.4674,3.4699,3.4758,3.479,3.4835,3.4837,3.479,3.4949,3.4885,3.4956,3.4957,3.4993,3.4991,3.5197,3.5011,3.501,3.501,3.501,0,3.4358,3.4443,3.4454,3.4514,3.4608,3.4606,3.4699,3.4718,3.4753,3.4815,3.4792,3.485,3.4848,3.4907,3.4909,3.5001,3.5015,3.5022,3.5021,3.5025,3.5025,3.5048,3.504,3.5015,3.5014,3.5013,3.5012,0,3.4506,3.4517,3.462,3.4661,3.4673,3.4741,3.4775,3.4831,3.4842,3.4921,3.4939,3.4956,3.5024,3.503,3.5108,3.5109,3.5221,3.5209,3.5208,3.5207,3.5279,3.5273,3.5509,3.5541,3.5332,3.5334,3.5336,0,3.4608,3.4673,3.4721,3.4762,3.4788,3.4854,3.4894,3.4893,3.4935,3.4989,3.5039,3.5105,3.5159,3.5269,3.5287,3.5348,3.5338,3.5417,3.5347,3.5349,3.5342,3.5339,3.5346,3.5431,3.5433,3.5435,3.5437,0,3.4787,3.479,3.4849,3.4911,3.496,3.5008,3.5053,3.5087,3.5092,3.514,3.5211,3.5253,3.5334,3.54,3.5459,3.5481,3.5461,3.5458,3.5478,3.5484,3.5482,3.5486,3.5247,3.5453,3.5452,3.545,3.545,3.5449,3.4917,3.4974,3.5018,3.5085,3.5119,3.5162,3.5218,3.5236,3.5295,3.5363,3.5358,3.5436,3.5477,3.5554,3.5581,3.5642,3.5615,3.5644,3.5652,3.5659,3.5668,3.547,3.5652,3.5651,3.5651,3.5651,3.565,0,3.5098,3.5124,3.5186,3.5251,3.5304,3.528,3.5328,3.5374,3.5444,3.5484,3.5538,3.5619,3.5684,3.5707,3.577,3.5814,3.5806,3.5831,3.5829,3.5834,3.5687,3.5664,3.5836,3.5836,3.5836,3.5836,3.5836,3.5836,3.5198,3.5295,3.5302,3.5416,3.5441,3.5519,3.5549,3.5588,3.5621,3.5714,3.5768,3.5783,3.5817,3.5882,3.594,3.5945,3.597,3.6,3.6001,3.5863,3.5845,3.5827,3.5806,3.6004,3.6005,3.6144,3.6145,3.6146]}]]